Sitka, AK

8:32 PM AKDT on March 22, 2017 (GMT -0800)
Sitka Rocky Gutierrez

Weather History for PASI - August, 2012

Change the Weather History Date:

Saturday, August 4, 2012

  Actual Average Record
Temperature  
Mean Temperature 55 °F -  
Max Temperature 59 °F 63 °F 74 °F (1968)
Min Temperature 53 °F 52 °F 48 °F (2002)
Degree Days  
Heating Degree Days 10    
Growing Degree Days 5 (Base 50)    
Moisture  
Dew Point 54 °F    
Average Humidity 95    
Maximum Humidity 100    
Minimum Humidity 87    
Precipitation  
Precipitation 0.00 in - - ()
Sea Level Pressure  
Sea Level Pressure 30.11 in    
Wind  
Wind Speed 2 mph (WNW)    
Max Wind Speed 7 mph    
Max Gust Speed -    
Visibility 10 miles    
Events      
Averages and records for this station are not official NWS values.
T = Trace of Precipitation, MM = Missing Value Source: NWS Daily Summary

Daily Weather History Graph

Daily Weather History Graph

Search for Another Location

Airport or City:

Trip Planner

Search our weather history database for the weather conditions in past years. The results will help you decide how hot, cold, wet, or windy it might be!

Date:

Astronomy

Aug. 04, 2012 Rise Set
Actual Time 5:07 AM AKDT 9:06 PM AKDT
Civil Twilight 4:17 AM AKDT 9:55 PM AKDT
Nautical Twilight 3:04 AM AKDT 11:07 PM AKDT
Astronomical Twilight 1:39 AM AKDT 12:34 AM AKDT
Moon 9:21 PM AKDT (8/4) 8:53 AM AKDT (8/4)
Length of Visible Light 17h 37m
Length of Day
15h 58m
Waning Gibbous, 92% of the Moon is Illuminated
Aug 4
Waning Gibbous
Aug 9
Last Quarter
Aug 17
New
Aug 24
First Quarter
Aug 31
Full

Hourly Weather History & Observations

Time (AKDT) Temp. Dew Point Humidity Pressure Visibility Wind Dir Wind Speed Gust Speed Precip Events Conditions
12:49 AM 53.6 °F 53.6 °F 100% 30.12 in 10.0 mi Calm Calm - N/A   Overcast
12:53 AM 53.1 °F 53.1 °F 100% 30.12 in 10.0 mi Calm Calm - N/A   Overcast
1:00 AM 53.6 °F 53.6 °F 100% 30.12 in 10.0 mi NW 3.5 mph - N/A   Overcast
1:26 AM 53.6 °F 53.6 °F 100% 30.12 in 10.0 mi Calm Calm - N/A   Overcast
1:53 AM 54.0 °F 54.0 °F 100% 30.13 in 10.0 mi NNW 6.9 mph - N/A   Overcast
2:00 AM 53.6 °F 53.6 °F 100% 30.13 in 10.0 mi NW 6.9 mph - N/A   Overcast
2:12 AM 53.6 °F 53.6 °F 100% 30.12 in 10.0 mi NW 6.9 mph - N/A   Overcast
2:53 AM 53.1 °F 53.1 °F 100% 30.12 in 10.0 mi NNW 6.9 mph - N/A   Overcast
3:53 AM 53.1 °F 53.1 °F 100% 30.13 in 10.0 mi Calm Calm - N/A   Overcast
4:53 AM 53.1 °F 53.1 °F 100% 30.12 in 10.0 mi Calm Calm - N/A   Overcast
5:53 AM 53.1 °F 53.1 °F 100% 30.13 in 10.0 mi NNW 4.6 mph - N/A   Overcast
6:53 AM 53.1 °F 53.1 °F 100% 30.13 in 10.0 mi Calm Calm - N/A   Mostly Cloudy
7:53 AM 54.0 °F 54.0 °F 100% 30.14 in 10.0 mi Calm Calm - N/A   Overcast
8:53 AM 54.0 °F 54.0 °F 100% 30.14 in 10.0 mi Calm Calm - N/A   Overcast
9:30 AM 53.6 °F 53.6 °F 100% 30.13 in - NW 4.6 mph - N/A   Mostly Cloudy
9:41 AM 53.6 °F 53.6 °F 100% 30.13 in - NW 3.5 mph - N/A   Mostly Cloudy
9:53 AM 55.0 °F 54.0 °F 96% 30.14 in 10.0 mi WNW 3.5 mph - N/A   Mostly Cloudy
10:53 AM 57.9 °F 54.0 °F 87% 30.13 in 10.0 mi Variable 3.5 mph - N/A   Partly Cloudy
11:53 AM 57.9 °F 54.0 °F 87% 30.14 in 10.0 mi Variable 3.5 mph - N/A   Scattered Clouds
12:53 PM 57.9 °F 54.0 °F 87% 30.13 in 10.0 mi Calm Calm - N/A   Mostly Cloudy
1:53 PM 57.0 °F 53.1 °F 87% 30.13 in 10.0 mi Calm Calm - N/A   Mostly Cloudy
2:53 PM 57.9 °F 55.0 °F 90% 30.12 in 10.0 mi SSW 3.5 mph - N/A   Overcast
3:53 PM 57.0 °F 54.0 °F 89% 30.10 in 10.0 mi West 3.5 mph - N/A   Mostly Cloudy
4:35 PM 57.2 °F 53.6 °F 88% 30.10 in 10.0 mi West 3.5 mph - N/A   Overcast
4:53 PM 57.0 °F 54.0 °F 89% 30.10 in 10.0 mi NW 3.5 mph - N/A   Overcast
5:53 PM 55.9 °F 53.1 °F 90% 30.09 in 10.0 mi Calm Calm - N/A   Overcast
6:53 PM 55.9 °F 53.1 °F 90% 30.08 in 10.0 mi Calm Calm - N/A   Overcast
7:53 PM 55.9 °F 54.0 °F 93% 30.06 in 10.0 mi Calm Calm - N/A   Overcast
8:53 PM 55.0 °F 53.1 °F 93% 30.05 in 10.0 mi SSE 4.6 mph - N/A   Overcast
9:53 PM 55.0 °F 54.0 °F 96% 30.05 in 10.0 mi Calm Calm - N/A   Overcast
10:53 PM 55.0 °F 53.1 °F 93% 30.04 in 10.0 mi South 5.8 mph - N/A   Overcast
11:05 PM 55.4 °F 53.6 °F 94% 30.03 in 10.0 mi SSW 4.6 mph - N/A   Overcast
11:53 PM 55.0 °F 53.1 °F 93% 30.03 in 10.0 mi SSW 3.5 mph - N/A   Overcast